User: anonymous   Login
Location: Newark
(34.1333°N, 7.9667°W)
Time: 15:37:20
(UTC+00:00)
Language:

AO-92 - Orbit

View from above orbital plane
View from above orbital plane
View from above satellite
View from above satellite

Ground track
Ground track

The orbit data is extracted from the following two-line orbital elements,

1 43137U 18004AC  23150.71688185  .00028219  00000-0  60116-3 0  9995
2 43137  97.3293 229.7344 0006290 188.3153 171.7993 15.44877405299619
Epoch (UTC): 30 May 2023 17:12:18
Eccentricity: 0.0006290
inclination: 97.3293°
perigee height: 427 km
apogee height: 436 km
right ascension of ascending node: 229.7344°
argument of perigee: 188.3153°
revolutions per day: 15.44877405
mean anomaly at epoch: 171.7993°
orbit number at epoch: 29961

The dashed part of the orbit path shows where the satellite is in the earth's shadow,  

DLR